Flag for Mexico Weather past 2 weeks in Mexicali, Baja California, Mexico

Now
87 °F

Sunny.


Feels Like: 84 °F
Forecast: 63 / 94 °F
Wind: 7 mph from South

Location: Imperial County Airport

Current Time: Mar 30, 2015 at 8:31:26 PM

Latest Report: Mar 30, 2015 at 7:53 PM


Visibility: 10 mi

Pressure: 29.82 "Hg

Humidity: 20%

Dew point: 41 °F

Location of MexicaliLocation

Historic Weather in Mexicali — Graph

°F

Mexicali temperature yesterday

Maximum temperature yesterday: 95 °F (at 4:53 PM)
Minimum temperature yesterday: 64 °F (at 6:53 AM)
Average temperature yesterday: 80 °F

Past Weeks' High & Low Weather Summary

 TemperatureHumidityPressure
High98 °F (Mar 28, 3:53 PM)81% (Mar 20, 6:53 AM)30.09 "Hg (Mar 20, 6:53 AM)
Low56 °F (Mar 16, 4:53 AM)7% (Mar 23, 11:53 AM)29.79 "Hg (Mar 17, 4:53 PM)
Average75 °F33%29.94 "Hg
* Reported Mar 15 6:53 PM — Mar 30 6:53 PM, Mexicali, Weather by CustomWeather, © 2015

Note: Actual official high and low records may vary slightly from our data, if they occured in-between our weather recording intervals... More about our weather records

Advertising

Mexicali weather history for previous 24 hours

 ConditionsComfort  
Time TempWeatherWind HumidityBarometerVisibility
6:53 PM
Mon, Mar 30
92 °FSunny.8 mph16%29.81 "Hg10 mi
5:53 PM95 °FSunny.8 mph12%29.81 "Hg10 mi
4:53 PM95 °FSunny.7 mph13%29.82 "Hg10 mi
3:53 PM95 °FSunny.6 mph14%29.83 "Hg10 mi
2:53 PM96 °FSunny.9 mph14%29.86 "Hg10 mi
1:53 PM94 °FSunny.8 mph14%29.89 "Hg10 mi
12:53 PM91 °FSunny.3 mph18%29.92 "Hg10 mi
11:53 AM88 °FSunny.5 mph21%29.94 "Hg10 mi
10:53 AM85 °FSunny.3 mph26%29.95 "Hg10 mi
9:53 AM81 °FSunny.7 mph27%29.95 "Hg10 mi
8:53 AM73 °FSunny.No wind34%29.94 "Hg10 mi
7:53 AM66 °FSunny.No wind56%29.93 "Hg10 mi
6:53 AM60 °FClear.No wind69%29.91 "Hg10 mi
5:53 AM63 °FClear.5 mph56%29.89 "Hg10 mi
4:53 AM66 °FClear.5 mph43%29.88 "Hg10 mi
3:53 AM69 °FClear.No wind31%29.88 "Hg10 mi
2:53 AM71 °FClear.No wind27%29.88 "Hg10 mi
1:53 AM76 °FClear.5 mph23%29.88 "Hg10 mi
12:53 AM75 °FClear.7 mph24%29.89 "Hg10 mi
11:53 PM
Sun, Mar 29
74 °FClear.6 mph29%29.89 "Hg10 mi
10:53 PM75 °FClear.7 mph34%29.89 "Hg10 mi
9:53 PM78 °FClear.5 mph31%29.88 "Hg10 mi
8:53 PM77 °FClear.6 mph35%29.87 "Hg10 mi
Weather by CustomWeather, © 2015

See weather overviewHow to use our weather pages